Location: Berg
(47.2344°N, 9.5296°E)
Time: 22:50:19
(UTC+00:00)

CZ-2C R/B - Pass Details

Date: 24 January 2021
Orbit: 785 x 870 km, 98.2° (Epoch: 04 March)

Event Time Altitude Azimuth Distance (km) Brightness Sun altitude
Exits shadow 18:10:33 34° 57° (ENE) 1,404 3.4 -19.9°
Maximum altitude 18:12:15 42° 97° (E) 1,215 3.0 -20.2°
Drops below altitude 10° 18:17:32 10° 168° (SSE) 2,509 5.1 -21.1°
Sets 18:20:02 0° 175° (S) 3,443 5.9 -21.5°
